Weather History for Forest City, IA

Change the Weather History Date:

Wednesday, December 12, 2012

  Actual Average Record
Temperature  
Mean Temperature 32 °F -  
Max Temperature 46 °F 28 °F 46 °F (2012)
Min Temperature 17 °F 12 °F 3 °F (2013)
Degree Days  
Heating Degree Days 34    
Moisture  
Dew Point 20 °F    
Average Humidity 59    
Maximum Humidity 93    
Minimum Humidity 37    
Precipitation  
Precipitation 0.00 in - - ()
Sea Level Pressure  
Sea Level Pressure 29.94 in    
Wind  
Wind Speed 11 mph (South)    
Max Wind Speed 24 mph    
Max Gust Speed 32 mph    
Visibility 10 miles    
Events      
Averages and records for this station are not official NWS values.
T = Trace of Precipitation, MM = Missing Value Source: NWS Daily Summary

Daily Weather History Graph

Daily Weather History Graph

Search for Another Location

Airport:

Trip Planner

Search our weather history database for the weather conditions in past years. The results will help you decide how hot, cold, wet, or windy it might be!

Date:

Astronomy

Dec. 12, 2012 Rise Set
Actual Time 7:37 AM CST 4:39 PM CST
Civil Twilight 7:05 AM CST 5:11 PM CST
Nautical Twilight 6:29 AM CST 5:47 PM CST
Astronomical Twilight 5:54 AM CST 6:22 PM CST
Moon 6:42 AM CST (12/12) 4:17 PM CST (12/12)
Length of Visible Light 10h 06m
Length of Day
9h 01m
Waning Crescent, 1% of the Moon is Illuminated
Dec 12
Waning Crescent
Dec 13
New
Dec 19
First Quarter
Dec 28
Full
Jan 4
Last Quarter

Hourly Weather History & Observations

Time (CST) Temp. Windchill Dew Point Humidity Pressure Visibility Wind Dir Wind Speed Gust Speed Precip Events Conditions
12:15 AM 23.0 °F 17.0 °F 21.2 °F 93% 29.97 in 10.0 mi SE 4.6 mph - N/A   Clear
12:35 AM 21.2 °F 14.9 °F 19.4 °F 93% 29.96 in 10.0 mi SE 4.6 mph - N/A   Clear
12:55 AM 21.2 °F 16.4 °F 17.6 °F 86% 29.95 in 10.0 mi SE 3.5 mph - N/A   Clear
1:15 AM 21.2 °F 16.4 °F 17.6 °F 86% 29.96 in 10.0 mi ESE 3.5 mph - N/A   Clear
1:35 AM 21.2 °F 14.9 °F 17.6 °F 86% 29.96 in 10.0 mi SE 4.6 mph - N/A   Clear
1:55 AM 21.2 °F 14.9 °F 17.6 °F 86% 29.97 in 10.0 mi SE 4.6 mph - N/A   Clear
2:15 AM 19.4 °F 14.3 °F 15.8 °F 86% 29.97 in 10.0 mi SE 3.5 mph - N/A   Clear
2:35 AM 17.6 °F 10.7 °F 14.0 °F 86% 29.97 in 10.0 mi SE 4.6 mph - N/A   Clear
2:55 AM 21.2 °F - 17.6 °F 86% 29.97 in 10.0 mi Calm Calm - N/A   Clear
3:15 AM 21.2 °F 16.4 °F 15.8 °F 80% 29.96 in 10.0 mi SE 3.5 mph - N/A   Clear
3:35 AM 19.4 °F 12.8 °F 14.0 °F 80% 29.96 in 10.0 mi SE 4.6 mph - N/A   Clear
3:55 AM 19.4 °F 14.3 °F 15.8 °F 86% 29.95 in 10.0 mi SSE 3.5 mph - N/A   Clear
4:15 AM 21.2 °F 13.6 °F 15.8 °F 80% 29.95 in 10.0 mi South 5.8 mph - N/A   Clear
4:35 AM 23.0 °F 14.7 °F 17.6 °F 80% 29.95 in 10.0 mi South 6.9 mph - N/A   Clear
4:55 AM 24.8 °F 14.6 °F 19.4 °F 80% 29.95 in 10.0 mi South 10.4 mph - N/A   Clear
5:15 AM 26.6 °F 16.2 °F 19.4 °F 74% 29.95 in 10.0 mi South 11.5 mph - N/A   Clear
5:35 AM 28.4 °F 17.5 °F 19.4 °F 69% 29.94 in 10.0 mi South 13.8 mph - N/A   Clear
5:55 AM 28.4 °F 17.0 °F 19.4 °F 69% 29.94 in 10.0 mi South 15.0 mph - N/A   Clear
6:15 AM 28.4 °F 17.0 °F 19.4 °F 69% 29.93 in 10.0 mi South 15.0 mph - N/A   Clear
6:35 AM 30.2 °F 19.3 °F 19.4 °F 64% 29.94 in 10.0 mi South 15.0 mph - N/A   Clear
6:55 AM 30.2 °F 18.9 °F 19.4 °F 64% 29.94 in 10.0 mi South 16.1 mph - N/A   Clear
7:15 AM 30.2 °F 18.9 °F 19.4 °F 64% 29.94 in 10.0 mi South 16.1 mph 21.9 mph N/A   Clear
7:35 AM 30.2 °F 19.3 °F 19.4 °F 64% 29.94 in 10.0 mi South 15.0 mph - N/A   Clear
7:55 AM 30.2 °F 19.8 °F 19.4 °F 64% 29.94 in 10.0 mi South 13.8 mph 20.7 mph N/A   Clear
8:15 AM 30.2 °F 18.9 °F 19.4 °F 64% 29.93 in 10.0 mi South 16.1 mph 21.9 mph N/A   Clear
8:35 AM 32.0 °F 20.5 °F 19.4 °F 60% 29.94 in 10.0 mi South 18.4 mph 23.0 mph N/A   Clear
8:55 AM 32.0 °F 20.5 °F 21.2 °F 64% 29.94 in 10.0 mi South 18.4 mph 23.0 mph N/A   Clear
9:15 AM 32.0 °F 20.1 °F 21.2 °F 64% 29.94 in 10.0 mi South 19.6 mph 25.3 mph N/A   Scattered Clouds
9:35 AM 32.0 °F 20.1 °F 21.2 °F 64% 29.95 in 10.0 mi South 19.6 mph 26.5 mph N/A   Mostly Cloudy
9:55 AM 33.8 °F 23.2 °F 21.2 °F 60% 29.96 in 10.0 mi South 17.3 mph 25.3 mph N/A   Overcast
10:15 AM 33.8 °F 22.8 °F 21.2 °F 60% 29.96 in 10.0 mi South 18.4 mph 23.0 mph N/A   Overcast
10:35 AM 35.6 °F 25.5 °F 21.2 °F 56% 29.96 in 10.0 mi South 17.3 mph 24.2 mph N/A   Mostly Cloudy
10:55 AM 35.6 °F 24.8 °F 21.2 °F 56% 29.95 in 10.0 mi South 19.6 mph - N/A   Clear
11:15 AM 35.6 °F 25.5 °F 23.0 °F 60% 29.94 in 10.0 mi South 17.3 mph 21.9 mph N/A   Clear
11:35 AM 37.4 °F 27.5 °F 23.0 °F 56% 29.93 in 10.0 mi South 18.4 mph 24.2 mph N/A   Clear
11:55 AM 39.2 °F 30.5 °F 24.8 °F 56% 29.92 in 10.0 mi South 16.1 mph - N/A   Clear
12:15 PM 41.0 °F 32.5 °F 26.6 °F 57% 29.92 in 10.0 mi South 17.3 mph 25.3 mph N/A   Clear
12:35 PM 41.0 °F 32.2 °F 26.6 °F 57% 29.91 in 10.0 mi South 18.4 mph 25.3 mph N/A   Clear
12:55 PM 42.8 °F 34.3 °F 23.0 °F 46% 29.91 in 10.0 mi South 19.6 mph 26.5 mph N/A   Clear
1:15 PM 44.6 °F 36.1 °F 23.0 °F 43% 29.90 in 10.0 mi South 21.9 mph 27.6 mph N/A   Clear
1:35 PM 44.6 °F 35.7 °F 24.8 °F 46% 29.89 in 10.0 mi SSW 24.2 mph 29.9 mph N/A   Clear
1:55 PM 44.6 °F 36.6 °F 23.0 °F 43% 29.89 in 10.0 mi South 19.6 mph 28.8 mph N/A   Clear
2:15 PM 44.6 °F 36.4 °F 23.0 °F 43% 29.89 in 10.0 mi South 20.7 mph 32.2 mph N/A   Clear
2:35 PM 46.4 °F 38.3 °F 21.2 °F 37% 29.88 in 10.0 mi SSW 23.0 mph 31.1 mph N/A   Clear
2:55 PM 46.4 °F 39.0 °F 21.2 °F 37% 29.89 in 10.0 mi SSW 19.6 mph 29.9 mph N/A   Clear
3:15 PM 46.4 °F 38.5 °F 21.2 °F 37% 29.89 in 10.0 mi SSW 21.9 mph 31.1 mph N/A   Clear
3:35 PM 44.6 °F 37.2 °F 21.2 °F 39% 29.89 in 10.0 mi South 17.3 mph - N/A   Clear
3:55 PM 44.6 °F 36.9 °F 21.2 °F 39% 29.90 in 10.0 mi South 18.4 mph 24.2 mph N/A   Clear
4:15 PM 42.8 °F 35.8 °F 21.2 °F 42% 29.90 in 10.0 mi South 13.8 mph 20.7 mph N/A   Clear
4:35 PM 41.0 °F 33.1 °F 23.0 °F 49% 29.90 in 10.0 mi South 15.0 mph - N/A   Clear
4:55 PM 41.0 °F 33.9 °F 23.0 °F 49% 29.90 in 10.0 mi South 12.7 mph - N/A   Clear
5:15 PM 41.0 °F 33.1 °F 21.2 °F 45% 29.91 in 10.0 mi South 15.0 mph 20.7 mph N/A   Clear
5:35 PM 41.0 °F 33.1 °F 21.2 °F 45% 29.90 in 10.0 mi South 15.0 mph 20.7 mph N/A   Scattered Clouds
5:55 PM 41.0 °F 33.1 °F 21.2 °F 45% 29.92 in 10.0 mi South 15.0 mph - N/A   Scattered Clouds
6:15 PM 37.4 °F 28.2 °F 23.0 °F 56% 29.92 in 10.0 mi South 16.1 mph - N/A   Clear
6:55 PM 37.4 °F 28.2 °F 21.2 °F 52% 29.92 in 10.0 mi South 16.1 mph - N/A   Clear
7:15 PM 37.4 °F 27.8 °F 21.2 °F 52% 29.92 in 10.0 mi South 17.3 mph 23.0 mph N/A   Clear
7:35 PM 37.4 °F 27.8 °F 19.4 °F 48% 29.92 in 10.0 mi South 17.3 mph 24.2 mph N/A   Clear
7:55 PM 37.4 °F 27.5 °F 19.4 °F 48% 29.94 in 10.0 mi South 18.4 mph 21.9 mph N/A   Clear
8:15 PM 37.4 °F 26.9 °F 19.4 °F 48% 29.94 in 10.0 mi South 20.7 mph 25.3 mph N/A   Clear
8:35 PM 37.4 °F 27.8 °F 17.6 °F 45% 29.94 in 10.0 mi South 17.3 mph 23.0 mph N/A   Clear
8:55 PM 35.6 °F 25.9 °F 17.6 °F 48% 29.94 in 10.0 mi South 16.1 mph - N/A   Clear
9:15 PM 35.6 °F 25.9 °F 17.6 °F 48% 29.95 in 10.0 mi South 16.1 mph 20.7 mph N/A   Clear
9:35 PM 35.6 °F 26.6 °F 17.6 °F 48% 29.95 in 10.0 mi South 13.8 mph - N/A   Clear
9:55 PM 35.6 °F 25.9 °F 15.8 °F 44% 29.95 in 10.0 mi South 16.1 mph 21.9 mph N/A   Clear
10:15 PM 35.6 °F 25.5 °F 14.0 °F 41% 29.96 in 10.0 mi South 17.3 mph 23.0 mph N/A   Clear
10:35 PM 35.6 °F 25.9 °F 14.0 °F 41% 29.96 in 10.0 mi South 16.1 mph 23.0 mph N/A   Clear
10:55 PM 35.6 °F 25.9 °F 14.0 °F 41% 29.96 in 10.0 mi South 16.1 mph 23.0 mph N/A   Clear
11:15 PM 35.6 °F 25.9 °F 14.0 °F 41% 29.96 in 10.0 mi South 16.1 mph 20.7 mph N/A   Clear
11:35 PM 35.6 °F 25.2 °F 14.0 °F 41% 29.96 in 10.0 mi South 18.4 mph - N/A   Clear
11:55 PM 33.8 °F 23.9 °F 14.0 °F 44% 29.96 in 10.0 mi SSW 15.0 mph - N/A   Clear